Location: Central Falls
(41.8900°N, 71.3929°W)
Time: 14:43:06
(UTC+00:00)

Vanguard 1 Rocket - Pass Details

Date: 10 December 2023
Orbit: 654 x 4218 km, 34.3° (Epoch: 24 February)

Event Time Altitude Azimuth Distance (km) Brightness Sun altitude
Rises 10:28:58 0° 259° (WSW) 8,375 - -16.7°
Exits shadow 10:33:27 - 258° (WSW) 7,489 11.5 -15.9°
Reaches altitude 10° 10:35:13 10° 257° (WSW) 7,125 11.4 -15.6°
Maximum altitude 10:57:04 66° 182° (S) 2,876 10.0 -11.7°
Drops below altitude 10° 11:08:35 10° 104° (ESE) 4,048 12.3 -9.8°
Sets 11:11:05 0° 101° (E) 4,709 13.0 -9.3°
